LHX4HF EDDK-EDDM

Flight info

Callsign LHX4HF
Flight time 0h 46m
Altitude 35000
Route KUMIK6D KUMIK Y854 BOMBI T104 ROKIL ROKIL1B
Aircraft A319/M-SDE3FGHIRWY/LB1

Departure

Time 2026-05-04 08:04
Airport Cologne Bonn Airport (EDDK)

Arrival

Time 2026-05-04 08:51
Airport Munich Airport (EDDM)
Time Latitude Longitude Altitude Speed Heading
2026-05-04 07:30 50.87984 7.12373 234 ft 0 kts 216°
2026-05-04 07:54 50.88059 7.12409 233 ft 0 kts 137°
2026-05-04 07:57 50.88055 7.12416 234 ft 3 kts 137°
2026-05-04 07:57 50.88032 7.12448 235 ft 5 kts 137°
2026-05-04 07:57 50.87992 7.12507 232 ft 11 kts 137°
2026-05-04 07:57 50.87922 7.12594 232 ft 14 kts 156°
2026-05-04 07:58 50.87824 7.12628 232 ft 15 kts 154°
2026-05-04 07:58 50.87742 7.12738 232 ft 17 kts 137°
2026-05-04 07:58 50.87649 7.12872 232 ft 19 kts 137°
2026-05-04 07:58 50.87552 7.13012 232 ft 19 kts 137°
2026-05-04 07:59 50.87451 7.13159 232 ft 20 kts 137°
2026-05-04 07:59 50.87345 7.13312 232 ft 21 kts 137°
2026-05-04 07:59 50.87237 7.13468 235 ft 20 kts 137°
2026-05-04 07:59 50.87137 7.13613 239 ft 19 kts 137°
2026-05-04 08:00 50.87045 7.13746 242 ft 17 kts 137°
2026-05-04 08:00 50.86961 7.13869 246 ft 15 kts 137°
2026-05-04 08:00 50.86923 7.13994 252 ft 11 kts 99°
2026-05-04 08:02 50.87096 7.15335 278 ft 18 kts 69°
2026-05-04 08:02 50.87048 7.15456 278 ft 14 kts 155°
2026-05-04 08:02 50.86971 7.15500 280 ft 7 kts 184°
2026-05-04 08:03 50.86945 7.15457 278 ft 1 kts 244°
2026-05-04 08:03 50.86944 7.15457 278 ft 0 kts 244°
2026-05-04 08:04 50.86892 7.15285 276 ft 53 kts 244°
2026-05-04 08:04 50.86609 7.14348 262 ft 132 kts 244°
2026-05-04 08:04 50.86176 7.12897 752 ft 142 kts 242°
2026-05-04 08:04 50.85760 7.11508 1511 ft 140 kts 243°
2026-05-04 08:05 50.85332 7.10108 2166 ft 146 kts 244°
2026-05-04 08:05 50.84854 7.08545 2643 ft 169 kts 244°
2026-05-04 08:05 50.84270 7.06782 3102 ft 193 kts 234°
2026-05-04 08:05 50.83085 7.05619 3477 ft 219 kts 190°
2026-05-04 08:06 50.81481 7.05915 3959 ft 249 kts 165°
2026-05-04 08:06 50.79841 7.06934 4813 ft 265 kts 149°
2026-05-04 08:06 50.78481 7.09012 5849 ft 275 kts 126°
2026-05-04 08:06 50.77652 7.11763 6874 ft 284 kts 106°
2026-05-04 08:08 50.77927 7.36384 12508 ft 366 kts 90°
2026-05-04 08:08 50.78007 7.40429 13427 ft 371 kts 91°
2026-05-04 08:10 50.80052 7.74490 19558 ft 409 kts 82°
2026-05-04 08:11 50.80545 7.78887 20195 ft 414 kts 83°
2026-05-04 08:11 50.81544 7.87968 21507 ft 424 kts 83°
2026-05-04 08:11 50.82046 7.92586 22151 ft 429 kts 83°
2026-05-04 08:12 50.82280 7.97283 22746 ft 429 kts 95°
2026-05-04 08:12 50.81874 8.01944 23346 ft 427 kts 108°
2026-05-04 08:12 50.80847 8.06394 23921 ft 424 kts 121°
2026-05-04 08:12 50.79285 8.10323 24441 ft 421 kts 133°
2026-05-04 08:13 50.77289 8.13578 24961 ft 417 kts 145°
2026-05-04 08:13 50.74927 8.16186 25473 ft 415 kts 152°
2026-05-04 08:13 50.72482 8.18642 25997 ft 418 kts 153°
2026-05-04 08:13 50.70018 8.21105 26502 ft 421 kts 153°
2026-05-04 08:14 50.67534 8.23583 27003 ft 424 kts 153°
2026-05-04 08:14 50.65029 8.26082 27502 ft 427 kts 153°
2026-05-04 08:14 50.62476 8.28634 27994 ft 430 kts 152°
2026-05-04 08:16 50.44380 8.46683 30971 ft 451 kts 153°
2026-05-04 08:16 50.41722 8.49316 31362 ft 452 kts 153°
2026-05-04 08:16 50.39066 8.51942 31873 ft 451 kts 153°
2026-05-04 08:17 50.36398 8.54513 32393 ft 449 kts 154°
2026-05-04 08:17 50.33689 8.56922 32902 ft 447 kts 156°
2026-05-04 08:17 50.30949 8.59210 33433 ft 444 kts 158°
2026-05-04 08:17 50.28212 8.61421 33990 ft 443 kts 158°
2026-05-04 08:19 50.09298 8.77001 35029 ft 436 kts 157°
2026-05-04 08:19 50.06642 8.79298 35028 ft 439 kts 153°
2026-05-04 08:20 50.01877 8.85399 35031 ft 446 kts 142°
2026-05-04 08:20 49.97290 8.91897 35031 ft 446 kts 143°
2026-05-04 08:21 49.92692 8.98383 35032 ft 446 kts 143°
2026-05-04 08:21 49.88091 9.04846 35033 ft 446 kts 143°
2026-05-04 08:22 49.83487 9.11299 35003 ft 446 kts 143°
2026-05-04 08:24 49.65050 9.36978 35029 ft 447 kts 143°
2026-05-04 08:24 49.60539 9.43687 35037 ft 452 kts 136°
2026-05-04 08:25 49.56410 9.50982 35011 ft 452 kts 135°
2026-05-04 08:25 49.52270 9.58259 35032 ft 452 kts 136°
2026-05-04 08:27 49.35634 9.87196 35041 ft 452 kts 136°
2026-05-04 08:28 49.31457 9.94404 35034 ft 452 kts 136°
2026-05-04 08:28 49.27294 10.01562 34854 ft 450 kts 136°
2026-05-04 08:29 49.25190 10.05172 34143 ft 451 kts 136°
2026-05-04 08:29 49.23095 10.08761 33246 ft 453 kts 136°
2026-05-04 08:29 49.20991 10.12359 32321 ft 454 kts 136°
2026-05-04 08:31 49.06067 10.37146 26550 ft 440 kts 137°
2026-05-04 08:33 48.92279 10.60390 22048 ft 417 kts 116°
2026-05-04 08:33 48.91183 10.64457 21435 ft 415 kts 114°
2026-05-04 08:35 48.83905 10.92194 17821 ft 393 kts 114°
2026-05-04 08:35 48.82890 10.96022 17278 ft 389 kts 114°
2026-05-04 08:35 48.81877 10.99824 17037 ft 388 kts 115°
2026-05-04 08:35 48.80865 11.03612 17058 ft 388 kts 115°
2026-05-04 08:37 48.74951 11.25713 14093 ft 367 kts 115°
2026-05-04 08:37 48.73992 11.29283 13559 ft 364 kts 115°
2026-05-04 08:37 48.73041 11.32814 12992 ft 360 kts 115°
2026-05-04 08:38 48.72416 11.35130 12616 ft 358 kts 115°
2026-05-04 08:38 48.71476 11.38608 12060 ft 355 kts 115°
2026-05-04 08:38 48.70545 11.42053 11493 ft 352 kts 115°
2026-05-04 08:40 48.64289 11.65080 9361 ft 308 kts 115°
2026-05-04 08:40 48.63483 11.68026 9100 ft 299 kts 115°
2026-05-04 08:40 48.62698 11.70886 8846 ft 291 kts 115°
2026-05-04 08:41 48.61928 11.73686 8586 ft 287 kts 114°
2026-05-04 08:41 48.61163 11.76466 8330 ft 286 kts 114°
2026-05-04 08:41 48.60401 11.79234 8066 ft 284 kts 114°
2026-05-04 08:41 48.59643 11.81978 7817 ft 282 kts 114°
2026-05-04 08:42 48.58889 11.84707 7568 ft 281 kts 114°
2026-05-04 08:42 48.58139 11.87425 7323 ft 280 kts 114°
2026-05-04 08:42 48.57392 11.90130 7078 ft 279 kts 114°
2026-05-04 08:42 48.56645 11.92832 6833 ft 278 kts 114°
2026-05-04 08:43 48.55902 11.95519 6594 ft 277 kts 113°
2026-05-04 08:43 48.55162 11.98192 6344 ft 276 kts 114°
2026-05-04 08:43 48.54422 12.00860 6084 ft 274 kts 113°
2026-05-04 08:43 48.53687 12.03505 5828 ft 273 kts 113°
2026-05-04 08:44 48.52955 12.06139 5574 ft 272 kts 113°
2026-05-04 08:44 48.52223 12.08764 5327 ft 270 kts 113°
2026-05-04 08:46 48.42157 12.16771 4991 ft 255 kts 189°
2026-05-04 08:46 48.40580 12.15674 5000 ft 249 kts 220°
2026-05-04 08:46 48.39500 12.13662 4991 ft 246 kts 240°
2026-05-04 08:46 48.38906 12.11335 4998 ft 234 kts 257°
2026-05-04 08:47 48.38691 12.08914 4886 ft 233 kts 264°
2026-05-04 08:47 48.38516 12.06501 4620 ft 232 kts 264°
2026-05-04 08:47 48.38339 12.04099 4317 ft 230 kts 264°
2026-05-04 08:47 48.38164 12.01732 4006 ft 224 kts 264°
2026-05-04 08:48 48.37992 11.99430 3737 ft 219 kts 264°
2026-05-04 08:48 48.37827 11.97219 3440 ft 207 kts 265°
2026-05-04 08:48 48.37670 11.95133 3222 ft 194 kts 265°
2026-05-04 08:48 48.37522 11.93171 2944 ft 185 kts 265°
2026-05-04 08:49 48.37380 11.91277 2687 ft 179 kts 265°
2026-05-04 08:50 48.36679 11.81996 1514 ft 131 kts 266°
2026-05-04 08:50 48.36584 11.80748 1485 ft 103 kts 262°
2026-05-04 08:51 48.36523 11.79980 1476 ft 38 kts 259°
2026-05-04 08:51 48.36441 11.79686 1482 ft 26 kts 240°
2026-05-04 08:51 48.36336 11.79470 1479 ft 24 kts 233°
2026-05-04 08:51 48.36258 11.79321 1481 ft 16 kts 224°
2026-05-04 08:52 48.36148 11.79307 1482 ft 17 kts 173°
2026-05-04 08:52 48.36029 11.79326 1481 ft 17 kts 173°
2026-05-04 08:52 48.35916 11.79357 1481 ft 16 kts 161°
2026-05-04 08:52 48.35839 11.79387 1485 ft 10 kts 173°
2026-05-04 08:53 48.35775 11.79398 1485 ft 7 kts 173°
2026-05-04 08:54 48.35739 11.79260 1485 ft 0 kts 263°